Flag for Peru Weather past 2 weeks in Arequipa, Arequipa, Peru

Now
46 °F

Scattered clouds.


Feels Like: 45 °F
Forecast: 52 / 71 °F
Wind: 3 mph from North

Location: Arequipa Airport

Current Time: Aug 29, 2014 at 7:15:08 AM

Latest Report: Aug 29, 2014 at 6:00 AM


Visibility: N/A

Pressure: 30.27 "Hg

Humidity: 27%

Dew point: 14 °F

Location of ArequipaLocation

Historic Weather in Arequipa — Graph

°F

Arequipa temperature yesterday

Maximum temperature yesterday: 68 °F (at 2:00 PM)
Minimum temperature yesterday: 45 °F (at 4:00 AM)
Average temperature yesterday: 56 °F

Past Weeks' High & Low Weather Summary

 TemperatureHumidityPressure
High73 °F (Aug 16, 11:00 AM)43% (Aug 15, 4:00 AM)30.39 "Hg (Aug 15, 4:00 AM)
Low43 °F (Aug 22, 5:00 AM)7% (Aug 27, 11:00 AM)30.21 "Hg (Aug 24, 2:00 PM)
Average58 °F22%30.31 "Hg
* Reported Aug 14 6:00 AM — Aug 29 6:00 AM, Arequipa, Weather by CustomWeather, © 2014

Note: Actual official high and low records may vary slightly from our data, if they occured in-between our weather recording intervals... More about our weather records

Advertising

Arequipa weather history for previous 24 hours

 ConditionsComfort  
Time TempWeatherWind HumidityBarometerVisibility
6:00 AM
Aug 29
46 °FScattered clouds.3 mph27%30.27 "HgN/A
5:00 AM46 °FPassing clouds.5 mph27%30.27 "HgN/A
4:00 AM50 °FClear.5 mph22%30.24 "Hg10 mi
3:00 AM48 °FClear.3 mph25%30.24 "Hg10 mi
2:00 AM50 °FClear.6 mph24%30.27 "Hg10 mi
1:00 AM50 °FClear.5 mph24%30.27 "Hg10 mi
12:00 AM50 °FClear.5 mph24%30.30 "Hg10 mi
11:00 PM
Aug 28
52 °FClear.3 mph22%30.30 "Hg10 mi
10:00 PM54 °FClear.2 mph21%30.30 "Hg10 mi
9:00 PM52 °FClear.7 mph22%30.33 "Hg10 mi
8:00 PM55 °FClear.2 mph21%30.33 "Hg10 mi
7:00 PM57 °FClear.7 mph18%30.30 "Hg10 mi
6:00 PM61 °FPassing clouds.10 mph17%30.27 "HgN/A
5:00 PM64 °FPassing clouds.9 mph14%30.27 "HgN/A
4:00 PM66 °FPassing clouds.9 mph13%30.24 "HgN/A
3:00 PM68 °FPassing clouds.12 mph12%30.24 "HgN/A
2:00 PM68 °FPassing clouds.12 mph11%30.24 "HgN/A
1:00 PM66 °FPassing clouds.13 mph11%30.27 "HgN/A
12:00 PM64 °FPassing clouds.12 mph14%30.30 "HgN/A
11:00 AM64 °FPassing clouds.9 mph13%30.33 "HgN/A
10:00 AM63 °FPassing clouds.8 mph15%30.33 "HgN/A
9:00 AM61 °FPassing clouds.6 mph15%30.33 "HgN/A
8:00 AM57 °FPassing clouds.6 mph18%30.30 "HgN/A
7:00 AM52 °FPassing clouds.6 mph24%30.30 "HgN/A
Weather by CustomWeather, © 2014

See weather overviewHow to use our weather pages